Lid_Strength_Index
6 5 5 5 5 5 5 6 7 7 7 6 6 5 5 2 1 1 0 1 1 2 2 2 2 2 2 3 3 5 8 10 12 13 14 15 14 14 13 13 13 13 13
7 6 6 6 6 6 6 5 5 5 6 6 6 6 5 6 7 1 1 1 1 1 2 1 3 3 3 4 4 7 9 11 11 11 14 16 15 16 15 14 15 16 15
7 7 7 7 7 7 7 6 6 5 5 6 6 7 6 6 7 5 1 1 1 1 1 2 3 3 4 6 6 8 9 12 11 11 13 16 15 18 16 16 16 16 16
7 7 7 7 8 8 8 8 7 7 6 6 7 7 8 8 7 6 5 2 1 2 2 2 3 4 4 6 7 8 9 11 12 11 12 12 15 17 20 17 17 16 17
8 8 8 8 9 8 9 9 8 8 8 7 7 7 8 8 7 6 6 6 1 1 1 2 3 3 4 5 7 8 9 10 10 11 13 14 13 14 16 19 19 17 17
9 9 9 9 10 10 10 10 10 10 9 9 8 7 8 8 8 7 7 5 4 2 2 2 3 3 4 5 7 8 9 10 9 10 11 13 14 15 16 17 19 19 17
10 10 11 11 12 12 12 11 11 11 10 9 9 8 7 7 8 7 6 6 4 2 2 2 3 4 5 6 7 8 9 9 10 10 11 11 12 12 14 17 18 18 17
10 11 12 12 13 13 13 12 11 11 11 10 10 8 7 7 7 6 5 3 2 3 3 3 3 4 5 6 6 7 8 9 9 10 10 11 12 12 13 16 17 19 19
11 13 13 13 14 14 13 13 12 11 10 10 9 9 8 6 7 6 5 2 2 3 3 3 4 4 5 6 7 8 8 9 9 10 11 13 13 13 14 14 15 17 20
13 13 14 14 14 14 14 13 12 12 11 10 9 10 8 6 6 6 5 3 7 8 4 4 5 5 6 6 7 8 10 12 12 13 15 15 14 14 14 14 14 14 16
13 14 15 14 14 14 14 14 13 12 11 10 9 9 8 6 5 6 6 7 8 11 13 13 12 12 13 13 15 15 15 15 16 15 15 16 16 16 16 16 15 15 16
14 15 15 15 14 15 14 14 13 12 11 10 9 8 7 6 7 10 11 11 13 14 14 15 15 15 15 15 15 16 16 16 16 16 16 17 16 17 16 17 17 17 17
15 15 16 15 15 15 15 14 13 11 10 9 8 9 10 10 11 11 12 12 13 14 15 15 16 15 15 15 15 16 16 16 17 17 17 17 17 18 18 18 18 17 17
16 16 16 16 16 15 15 14 13 11 10 10 10 11 11 11 11 12 12 13 13 14 14 16 15 15 15 16 16 16 17 17 17 17 17 18 18 18 19 18 18 18 18
17 17 17 16 16 15 15 15 14 13 11 11 11 12 12 12 12 13 13 14 14 14 14 15 16 16 15 16 17 18 18 18 18 18 17 18 17 17 17 18 19 19 19
17 17 17 16 16 16 16 15 15 14 13 13 13 13 13 13 13 15 15 15 15 15 15 15 15 16 16 15 15 16 17 17 18 18 18 17 17 17 16 17 17 18 20
18 18 17 17 17 16 15 16 16 15 15 14 15 13 13 14 14 14 15 16 16 15 15 16 16 16 16 15 15 16 17 18 18 18 18 18 17 17 17 17 17 17 16
18 18 17 17 16 16 15 15 15 16 16 15 15 15 14 15 15 16 16 15 17 17 17 17 17 17 16 15 16 17 18 18 18 18 19 19 19 19 20 20 20 20 19
16 17 17 17 17 16 15 16 16 16 16 16 16 16 16 15 16 16 16 16 16 16 17 16 17 17 17 16 16 17 18 18 18 18 18 19 20 18 18 20 20 20 18
15 15 17 18 17 17 16 17 17 17 17 17 17 16 16 16 16 16 16 17 17 17 17 17 17 17 18 16 16 17 18 19 19 19 19 18 18 17 17 19 19 20 19
17 15 19 18 18 16 17 18 18 19 18 17 17 17 16 16 16 17 16 17 17 17 17 18 18 18 18 17 16 16 18 18 19 19 19 17 15 16 16 16 18 18 18
18 18 18 18 19 18 17 18 18 17 17 17 17 17 17 17 17 17 17 17 18 18 18 18 19 18 17 16 16 15 16 16 18 18 18 16 14 15 16 17 16 16 19
16 17 16 16 17 17 16 17 17 17 17 17 18 17 17 17 17 17 17 18 18 18 19 19 19 19 18 17 14 14 15 16 17 17 16 14 14 15 18 17 16 21 25
17 18 17 18 18 17 17 17 16 16 18 19 19 18 19 18 18 17 17 18 18 18 18 18 19 19 19 18 18 17 17 16 17 16 18 17 19 19 20 21 20 22 24
17 18 19 19 19 18 19 19 18 19 19 19 18 19 19 20 19 18 19 18 18 17 19 19 19 20 20 18 16 18 19 20 19 23 24 25 25 26 25 26 27 27 27
18 19 19 19 20 21 21 22 22 21 21 19 19 19 19 19 18 18 17 13 14 13 13 14 16 18 15 14 14 14 15 16 16 27 28 27 26 26 27 27 27 28 27